Location: Mason
(37.5237°N, 89.2543°W)
Time: 08:18:06
(UTC+00:00)

NOSS 3-2 (A) - Pass Details

Date: 24 January 2021
Orbit: 783 x 1425 km, 63.4° (Epoch: 07 March)

Event Time Altitude Azimuth Distance (km) Brightness Sun altitude
Rises 12:32:07 0° 242° (WSW) 3,317 5.9 -7.1°
Reaches altitude 10° 12:34:42 10° 253° (WSW) 2,438 5.1 -6.6°
Maximum altitude 12:39:39 31° 315° (NW) 1,520 4.1 -5.7°
Drops below altitude 10° 12:45:12 10° 17° (NNE) 2,753 5.8 -4.7°
Sets 12:48:20 0° 27° (NNE) 3,817 6.7 -4.1°
